Time,TemperatureF,DewpointF,PressureIn,WindDirection,WindDirectionDegrees,WindSpeedMPH,WindSpeedGustMPH,Humidity,HourlyPrecipIn,Conditions,Clouds,dailyrainin,SoftwareType,DateUTC
2013-01-27 00:09:00,55.9,53.0,30.06,SSE,157,0.0,-999.0,90,-99.99,,,0.00,Acu-Link.com,2013-01-27 05:09:00,
2013-01-27 00:25:00,55.0,51.8,30.05,SE,135,0.0,-999.0,89,-99.99,,,0.00,Acu-Link.com,2013-01-27 05:25:00,
2013-01-27 00:40:00,55.0,51.5,30.05,East,90,0.0,-999.0,88,-99.99,,,0.00,Acu-Link.com,2013-01-27 05:40:00,
2013-01-27 00:55:00,54.5,51.6,30.05,ESE,112,0.0,-999.0,90,-99.99,,,0.00,Acu-Link.com,2013-01-27 05:55:00,
2013-01-27 01:11:00,54.1,51.2,30.06,ESE,112,0.0,-999.0,90,-99.99,,,0.00,Acu-Link.com,2013-01-27 06:11:00,
2013-01-27 01:26:00,54.0,50.8,30.06,WSW,247,0.0,-999.0,89,-99.99,,,0.00,Acu-Link.com,2013-01-27 06:26:00,
2013-01-27 01:41:00,53.6,50.7,30.07,ESE,112,0.0,-999.0,90,-99.99,,,0.00,Acu-Link.com,2013-01-27 06:41:00,
2013-01-27 01:57:00,53.6,50.7,30.06,ESE,112,0.0,-999.0,90,-99.99,,,0.00,Acu-Link.com,2013-01-27 06:57:00,
2013-01-27 02:27:00,53.1,49.6,30.07,SSW,202,0.0,-999.0,88,-99.99,,,0.00,Acu-Link.com,2013-01-27 07:27:00,
2013-01-27 02:43:00,52.9,49.7,30.07,SSW,202,0.0,-999.0,89,-99.99,,,0.00,Acu-Link.com,2013-01-27 07:43:00,
2013-01-27 02:58:00,53.2,50.6,30.06,ESE,112,0.0,-999.0,91,-99.99,,,0.00,Acu-Link.com,2013-01-27 07:58:00,
2013-01-27 03:13:00,52.7,50.4,30.06,South,180,0.0,-999.0,92,-99.99,,,0.00,Acu-Link.com,2013-01-27 08:13:00,
2013-01-27 03:29:00,52.7,50.7,30.06,East,90,0.0,-999.0,93,-99.99,,,0.00,Acu-Link.com,2013-01-27 08:29:00,
2013-01-27 03:44:00,52.5,50.5,30.06,SE,135,0.0,-999.0,93,-99.99,,,0.00,Acu-Link.com,2013-01-27 08:44:00,
2013-01-27 03:59:00,52.0,50.3,30.07,ENE,67,0.0,-999.0,94,-99.99,,,0.00,Acu-Link.com,2013-01-27 08:59:00,
2013-01-27 04:16:00,52.9,51.5,30.07,SSE,157,0.0,-999.0,95,-99.99,,,0.00,Acu-Link.com,2013-01-27 09:16:00,
2013-01-27 04:32:00,51.6,49.9,30.07,ESE,112,0.0,-999.0,94,-99.99,,,0.00,Acu-Link.com,2013-01-27 09:32:00,
2013-01-27 04:47:00,51.6,49.6,30.07,East,90,0.0,-999.0,93,-99.99,,,0.00,Acu-Link.com,2013-01-27 09:47:00,
2013-01-27 05:02:00,51.8,50.1,30.07,East,90,0.0,-999.0,94,-99.99,,,0.00,Acu-Link.com,2013-01-27 10:02:00,
2013-01-27 05:17:00,52.2,51.1,30.07,East,90,0.0,-999.0,96,-99.99,,,0.00,Acu-Link.com,2013-01-27 10:17:00,
2013-01-27 05:32:00,52.9,52.1,30.07,NNE,22,0.0,-999.0,97,-99.99,,,0.00,Acu-Link.com,2013-01-27 10:32:00,
2013-01-27 05:48:00,53.4,52.8,30.08,SE,135,0.0,-999.0,98,-99.99,,,0.00,Acu-Link.com,2013-01-27 10:48:00,
2013-01-27 06:03:00,53.1,52.5,30.08,SE,135,0.0,-999.0,98,-99.99,,,0.00,Acu-Link.com,2013-01-27 11:03:00,
2013-01-27 06:18:00,52.9,52.4,30.09,SE,135,0.0,-999.0,98,-99.99,,,0.00,Acu-Link.com,2013-01-27 11:18:00,
2013-01-27 06:33:00,52.3,51.8,30.10,SE,135,0.0,-999.0,98,-99.99,,,0.00,Acu-Link.com,2013-01-27 11:33:00,
2013-01-27 06:49:00,52.5,52.0,30.10,SE,135,0.0,-999.0,98,-99.99,,,0.00,Acu-Link.com,2013-01-27 11:49:00,
2013-01-27 07:04:00,52.3,51.8,30.10,SE,135,0.0,-999.0,98,-99.99,,,0.00,Acu-Link.com,2013-01-27 12:04:00,
2013-01-27 07:19:00,52.5,52.0,30.11,SE,135,0.0,-999.0,98,-99.99,,,0.00,Acu-Link.com,2013-01-27 12:19:00,
2013-01-27 07:35:00,52.3,51.8,30.11,SE,135,0.0,-999.0,98,-99.99,,,0.00,Acu-Link.com,2013-01-27 12:35:00,
2013-01-27 07:50:00,53.1,52.5,30.11,SSW,202,0.0,-999.0,98,-99.99,,,0.00,Acu-Link.com,2013-01-27 12:50:00,
2013-01-27 08:05:00,57.7,55.4,30.11,ESE,112,0.0,-999.0,92,-99.99,,,0.00,Acu-Link.com,2013-01-27 13:05:00,
2013-01-27 08:21:00,57.9,55.6,30.12,West,270,0.0,-999.0,92,-99.99,,,0.00,Acu-Link.com,2013-01-27 13:21:00,
2013-01-27 08:36:00,60.4,57.8,30.13,West,270,0.0,-999.0,91,-99.99,,,0.00,Acu-Link.com,2013-01-27 13:36:00,
2013-01-27 08:51:00,62.8,58.9,30.13,WSW,247,1.1,-999.0,87,-99.99,,,0.00,Acu-Link.com,2013-01-27 13:51:00,
2013-01-27 09:06:00,63.3,59.7,30.13,NW,315,2.2,-999.0,88,-99.99,,,0.00,Acu-Link.com,2013-01-27 14:06:00,
2013-01-27 09:22:00,66.2,60.9,30.14,SSW,202,1.7,-999.0,83,-99.99,,,0.00,Acu-Link.com,2013-01-27 14:22:00,
2013-01-27 09:37:00,67.6,61.2,30.14,East,90,1.7,-999.0,80,-99.99,,,0.00,Acu-Link.com,2013-01-27 14:37:00,
2013-01-27 09:52:00,69.4,61.1,30.15,SSE,157,3.2,-999.0,75,-99.99,,,0.00,Acu-Link.com,2013-01-27 14:52:00,
2013-01-27 10:08:00,70.9,61.4,30.15,NE,45,1.1,-999.0,72,-99.99,,,0.00,Acu-Link.com,2013-01-27 15:08:00,
2013-01-27 10:23:00,71.2,60.9,30.15,WSW,247,2.7,-999.0,70,-99.99,,,0.00,Acu-Link.com,2013-01-27 15:23:00,
2013-01-27 10:38:00,72.1,59.7,30.15,North,0,2.2,-999.0,65,-99.99,,,0.00,Acu-Link.com,2013-01-27 15:38:00,
2013-01-27 10:54:00,73.2,59.4,30.15,ESE,112,0.0,-999.0,62,-99.99,,,0.00,Acu-Link.com,2013-01-27 15:54:00,
2013-01-27 11:09:00,74.7,58.4,30.14,South,180,4.2,-999.0,57,-99.99,,,0.00,Acu-Link.com,2013-01-27 16:09:00,
2013-01-27 11:24:00,75.7,58.9,30.14,SE,135,2.7,-999.0,56,-99.99,,,0.00,Acu-Link.com,2013-01-27 16:24:00,
2013-01-27 11:40:00,75.9,58.6,30.14,East,90,3.7,-999.0,55,-99.99,,,0.00,Acu-Link.com,2013-01-27 16:40:00,
2013-01-27 11:55:00,77.2,58.2,30.12,SSE,157,3.7,-999.0,52,-99.99,,,0.00,Acu-Link.com,2013-01-27 16:55:00,
2013-01-27 12:10:00,77.7,59.7,30.11,ENE,67,3.2,-999.0,54,-99.99,,,0.00,Acu-Link.com,2013-01-27 17:10:00,
2013-01-27 12:26:00,79.3,60.1,30.10,SE,135,0.0,-999.0,52,-99.99,,,0.00,Acu-Link.com,2013-01-27 17:26:00,
2013-01-27 12:41:00,79.2,59.5,30.08,WNW,292,2.7,-999.0,51,-99.99,,,0.00,Acu-Link.com,2013-01-27 17:41:00,
2013-01-27 12:56:00,78.6,57.8,30.07,SSE,157,4.2,-999.0,49,-99.99,,,0.00,Acu-Link.com,2013-01-27 17:56:00,
2013-01-27 13:12:00,78.6,57.8,30.06,SSE,157,3.2,-999.0,49,-99.99,,,0.00,Acu-Link.com,2013-01-27 18:12:00,
2013-01-27 13:27:00,79.5,58.1,30.04,SSW,202,2.7,-999.0,48,-99.99,,,0.00,Acu-Link.com,2013-01-27 18:27:00,
2013-01-27 13:42:00,78.8,56.8,30.03,SSE,157,3.2,-999.0,47,-99.99,,,0.00,Acu-Link.com,2013-01-27 18:42:00,
2013-01-27 13:58:00,80.6,57.3,30.03,SE,135,2.2,-999.0,45,-99.99,,,0.00,Acu-Link.com,2013-01-27 18:58:00,
2013-01-27 14:13:00,79.3,57.9,30.03,NW,315,2.2,-999.0,48,-99.99,,,0.00,Acu-Link.com,2013-01-27 19:13:00,
2013-01-27 14:28:00,80.4,58.3,30.02,SSW,202,4.7,-999.0,47,-99.99,,,0.00,Acu-Link.com,2013-01-27 19:28:00,
2013-01-27 14:44:00,80.2,58.1,30.02,NW,315,2.7,-999.0,47,-99.99,,,0.00,Acu-Link.com,2013-01-27 19:44:00,
2013-01-27 14:59:00,80.2,57.5,30.01,ESE,112,2.2,-999.0,46,-99.99,,,0.00,Acu-Link.com,2013-01-27 19:59:00,
2013-01-27 15:14:00,80.4,57.7,30.00,West,270,3.7,-999.0,46,-99.99,,,0.00,Acu-Link.com,2013-01-27 20:14:00,
2013-01-27 15:30:00,79.5,58.1,30.01,NNE,22,2.7,-999.0,48,-99.99,,,0.00,Acu-Link.com,2013-01-27 20:30:00,
2013-01-27 15:45:00,79.7,58.3,30.01,SSE,157,2.7,-999.0,48,-99.99,,,0.00,Acu-Link.com,2013-01-27 20:45:00,
2013-01-27 16:01:00,79.2,57.2,30.00,East,90,5.3,-999.0,47,-99.99,,,0.00,Acu-Link.com,2013-01-27 21:01:00,
2013-01-27 16:16:00,78.8,57.4,30.01,SSE,157,2.7,-999.0,48,-99.99,,,0.00,Acu-Link.com,2013-01-27 21:16:00,
2013-01-27 16:32:00,78.1,56.8,30.00,SSW,202,3.2,-999.0,48,-99.99,,,0.00,Acu-Link.com,2013-01-27 21:32:00,
2013-01-27 16:47:00,77.5,57.4,30.01,East,90,3.2,-999.0,50,-99.99,,,0.00,Acu-Link.com,2013-01-27 21:47:00,
2013-01-27 17:02:00,76.3,56.3,30.01,South,180,2.2,-999.0,50,-99.99,,,0.00,Acu-Link.com,2013-01-27 22:02:00,
2013-01-27 17:18:00,75.6,55.6,30.02,NW,315,3.2,-999.0,50,-99.99,,,0.00,Acu-Link.com,2013-01-27 22:18:00,
2013-01-27 17:33:00,75.7,55.2,30.03,ENE,67,1.1,-999.0,49,-99.99,,,0.00,Acu-Link.com,2013-01-27 22:33:00,
2013-01-27 17:48:00,74.1,55.9,30.04,NNE,22,1.7,-999.0,53,-99.99,,,0.00,Acu-Link.com,2013-01-27 22:48:00,
2013-01-27 18:03:00,73.0,56.4,30.04,West,270,3.2,-999.0,56,-99.99,,,0.00,Acu-Link.com,2013-01-27 23:03:00,
2013-01-27 18:19:00,71.1,56.0,30.04,East,90,1.1,-999.0,59,-99.99,,,0.00,Acu-Link.com,2013-01-27 23:19:00,
2013-01-27 18:34:00,70.0,55.9,30.05,South,180,1.7,-999.0,61,-99.99,,,0.00,Acu-Link.com,2013-01-27 23:34:00,
2013-01-27 18:49:00,69.3,56.6,30.06,SSE,157,0.0,-999.0,64,-99.99,,,0.00,Acu-Link.com,2013-01-27 23:49:00,
2013-01-27 19:05:00,68.7,56.9,30.06,NE,45,1.7,-999.0,66,-99.99,,,0.00,Acu-Link.com,2013-01-28 00:05:00,
2013-01-27 19:20:00,67.1,56.2,30.07,ESE,112,1.1,-999.0,68,-99.99,,,0.00,Acu-Link.com,2013-01-28 00:20:00,
2013-01-27 19:35:00,66.7,56.2,30.08,SW,225,0.0,-999.0,69,-99.99,,,0.00,Acu-Link.com,2013-01-28 00:35:00,
2013-01-27 19:51:00,65.7,56.0,30.08,West,270,0.0,-999.0,71,-99.99,,,0.00,Acu-Link.com,2013-01-28 00:51:00,
2013-01-27 20:06:00,65.1,56.2,30.08,WNW,292,1.1,-999.0,73,-99.99,,,0.00,Acu-Link.com,2013-01-28 01:06:00,
2013-01-27 20:21:00,63.9,55.4,30.09,SSE,157,0.0,-999.0,74,-99.99,,,0.00,Acu-Link.com,2013-01-28 01:21:00,
2013-01-27 20:36:00,63.5,55.1,30.09,East,90,0.0,-999.0,74,-99.99,,,0.00,Acu-Link.com,2013-01-28 01:36:00,
2013-01-27 20:52:00,63.1,55.4,30.09,WNW,292,0.0,-999.0,76,-99.99,,,0.00,Acu-Link.com,2013-01-28 01:52:00,
2013-01-27 21:07:00,62.4,55.1,30.09,ESE,112,0.0,-999.0,77,-99.99,,,0.00,Acu-Link.com,2013-01-28 02:07:00,
2013-01-27 21:22:00,63.0,55.3,30.10,West,270,0.0,-999.0,76,-99.99,,,0.00,Acu-Link.com,2013-01-28 02:22:00,
2013-01-27 21:38:00,61.9,55.3,30.10,SE,135,0.0,-999.0,79,-99.99,,,0.00,Acu-Link.com,2013-01-28 02:38:00,
2013-01-27 21:53:00,61.3,55.1,30.10,WNW,292,0.0,-999.0,80,-99.99,,,0.00,Acu-Link.com,2013-01-28 02:53:00,
2013-01-27 22:08:00,62.4,56.1,30.10,East,90,1.1,-999.0,80,-99.99,,,0.00,Acu-Link.com,2013-01-28 03:08:00,
2013-01-27 22:24:00,61.3,55.4,30.10,West,270,0.0,-999.0,81,-99.99,,,0.00,Acu-Link.com,2013-01-28 03:24:00,
2013-01-27 22:39:00,60.8,55.6,30.10,ESE,112,0.0,-999.0,83,-99.99,,,0.00,Acu-Link.com,2013-01-28 03:39:00,
2013-01-27 22:54:00,60.4,55.5,30.10,WSW,247,0.0,-999.0,84,-99.99,,,0.00,Acu-Link.com,2013-01-28 03:54:00,
2013-01-27 23:09:00,60.3,56.1,30.10,West,270,0.0,-999.0,86,-99.99,,,0.00,Acu-Link.com,2013-01-28 04:09:00,
2013-01-27 23:25:00,60.1,56.8,30.10,SSW,202,0.0,-999.0,89,-99.99,,,0.00,Acu-Link.com,2013-01-28 04:25:00,
2013-01-27 23:40:00,60.3,57.4,30.10,WSW,247,0.0,-999.0,90,-99.99,,,0.00,Acu-Link.com,2013-01-28 04:40:00,
2013-01-27 23:55:00,60.3,57.7,30.09,WSW,247,0.0,-999.0,91,-99.99,,,0.00,Acu-Link.com,2013-01-28 04:55:00,